Погода в Чаган-Узуне

Россия / Республика Алтай     50°06′08″N   88°21′41″E
темп.,
°C
ветер,
м/с
пор.,
м/с
влажн.,
%
обл.,
%
осадки,
мм/ч
давл.,
гПа
погр.,
м
4 июля, пн
пн401:00+4ю00816 0.4 101010
04:00+3ю018520 0.0 101010
07:00+6сз00675 0.0 1010198
10:00+10в234924 0.0 10081411
13:00+14всв343467 0.0 10052263
16:00+16ссв223099 0.0 10042441
19:00+16с22319 0.0 10031438
22:00+10ююз2244100 0.0 100410
5 июля, вт
вт501:00+9з2241100 0.0 100421
04:00+7зюз2249100 0.0 100425
07:00+11юз1247100 0.0 1004121
10:00+15ююв3535100 0.0 10021469
13:00+17юз4636100 0.0 10002203
16:00+15з5545100 0.0 10011521
19:00+11юз476492 0.3 10041031
22:00+10з476643 0.2 1006689
6 июля, ср
ср601:00+8зюз586889 0.3 1007325
04:00+6зюз476614 0.1 1009204
07:00+8зюз466012 0.2 1009500
10:00+12юз664223 0.0 10081720
13:00+15зюз7103642 0.0 10062552
16:00+15зюз883360 0.0 10062300
19:00+14зюз663565 0.1 10071860
22:00+6зюз697296 0.1 1012259
7 июля, чт
чт701:00+5зюз467427 0.1 1013117
04:00+4юз22793 0.0 101337
07:00+7ю22665 0.0 1013224
10:00+11юв23455 0.0 10101472
13:00+16зюз242792 0.0 10082820
16:00+17зсз332799 0.0 10072739
19:00+15ссз443818 0.1 10081325
22:00+9ссз115762 0.1 101013
8 июля, пт
пт801:00+9сз235461 0.1 101175
04:00+6з22626 0.0 101122
07:00+9з22535 0.0 1011159
10:00+14юв12327 0.0 10081606
13:00+17юв132656 0.0 10052861
16:00+19зюз452497 0.0 10032951
19:00+15зюз793799 0.0 10041280
22:00+9сз46695 0.1 1008144